Theta_e
274 274 274 275 275 275 275 275 276 277 277 277 278 279 281 283 286 288 289 290 292 293 294 295 297 298 299 301 303 304 305 306 308 308 309 311 313 314 315 316 317 318
273 273 273 274 274 274 274 274 275 275 276 276 277 278 279 281 284 286 287 289 290 291 292 294 295 296 297 299 301 303 304 305 306 307 307 309 310 312 313 314 315 316
272 272 273 273 273 274 274 274 274 274 275 276 277 277 278 279 281 283 284 286 288 290 291 292 293 294 296 298 299 301 302 303 304 304 305 307 308 309 310 312 313 314
271 272 272 272 272 273 273 273 274 274 275 276 276 277 277 278 279 280 281 283 285 287 289 290 291 293 294 296 298 299 300 301 302 303 304 305 306 307 308 309 310 312
271 271 271 272 272 272 273 273 273 274 274 275 276 276 276 277 278 279 279 281 283 285 287 288 290 291 293 294 296 298 298 299 300 301 302 303 304 305 306 307 308 309
270 270 271 271 271 272 272 272 272 273 274 274 275 276 276 277 277 277 278 279 280 282 284 286 288 289 291 293 295 296 297 297 298 299 300 301 302 303 304 305 305 306
269 270 270 270 271 271 271 271 272 272 273 273 274 275 275 276 277 276 277 278 279 280 282 283 285 287 289 291 293 295 295 295 297 298 299 300 300 301 301 302 303 303
269 269 269 269 270 270 270 270 271 272 272 273 274 274 275 275 275 276 276 277 277 278 280 282 284 285 287 290 292 293 293 293 294 296 298 298 299 299 300 301 301 301
268 268 268 268 269 269 269 270 270 271 272 272 273 274 274 274 274 275 276 276 277 277 278 280 282 283 285 288 291 292 291 291 292 294 296 297 298 298 299 299 299 299
267 267 267 268 268 268 269 269 269 270 271 271 272 273 274 274 274 274 275 276 276 276 277 278 280 281 283 286 290 291 289 289 290 292 293 295 297 297 297 298 298 298
266 266 267 267 267 267 268 268 268 269 270 271 271 272 273 273 273 273 274 275 275 275 276 277 278 280 282 285 288 288 287 287 289 290 291 293 295 296 296 297 297 297
266 266 266 266 266 266 267 267 267 268 269 270 271 271 271 272 272 272 273 273 274 274 275 276 277 278 280 284 286 285 284 285 287 288 290 291 293 294 295 296 296 297
265 265 265 265 265 266 266 266 266 267 268 269 270 270 270 270 271 271 272 272 273 273 274 275 276 277 280 282 283 283 283 284 285 287 288 289 291 292 294 295 295 296
264 264 265 265 265 265 265 265 266 266 267 268 269 269 269 269 270 270 271 271 272 272 273 274 275 276 278 280 281 281 283 283 283 285 286 288 289 291 292 294 294 294
264 264 264 264 264 264 265 265 265 265 266 266 267 267 268 268 269 269 270 271 271 272 272 273 274 275 277 278 279 280 281 282 282 283 284 286 288 290 291 293 293 293
263 263 263 263 263 264 264 264 264 264 264 265 265 266 267 267 268 269 269 269 270 271 271 272 273 274 275 276 278 279 280 281 282 282 283 285 286 288 290 291 291 291
263 263 263 263 263 263 263 263 263 263 264 264 264 265 266 266 267 268 268 268 269 270 270 271 271 272 274 275 277 278 279 280 281 282 282 283 285 287 289 289 290 290
262 262 262 262 262 262 262 262 262 263 263 264 264 264 265 265 266 266 267 267 268 268 269 270 270 271 273 274 275 277 279 279 280 281 282 282 283 285 287 288 289 289
262 262 261 261 261 261 261 261 262 262 262 263 263 263 264 264 264 265 266 266 266 267 268 269 269 270 272 273 275 276 278 279 279 279 279 280 281 283 285 287 287 288
261 261 261 261 260 261 261 261 261 262 262 262 262 263 263 263 263 264 264 265 265 266 267 268 269 270 271 272 274 276 277 278 278 277 277 278 279 281 284 285 286 287
260 260 260 260 260 260 260 261 261 261 261 261 262 262 262 262 263 263 263 264 264 264 265 266 268 269 270 271 273 274 275 276 276 276 276 277 278 279 282 284 285 287
259 259 259 259 259 259 260 260 260 260 261 261 261 261 261 262 262 262 263 263 263 264 264 265 266 268 269 270 272 273 274 275 275 276 276 277 277 279 280 282 284 286
258 258 258 258 259 259 259 259 260 260 260 260 260 260 261 261 261 261 262 262 263 263 264 264 266 267 268 269 271 272 273 274 275 275 276 276 277 279 280 282 283 285
257 257 258 258 258 258 259 259 259 259 259 259 260 260 260 260 261 261 261 262 262 263 263 264 265 266 267 268 270 271 273 274 274 275 276 276 277 278 280 281 282 284
256 257 257 257 258 258 258 258 258 258 259 259 259 259 259 260 260 260 261 262 262 263 263 263 264 266 267 268 269 271 272 273 274 275 275 276 277 277 279 280 281 283
256 256 256 257 257 257 257 257 258 258 258 258 258 258 259 259 259 260 260 261 262 263 263 264 264 265 267 268 269 270 272 273 274 274 275 276 276 277 278 279 281 282
Wind_Speed
32 30 29 30 29 30 32 32 31 30 31 32 32 31 31 29 28 28 28 27 27 26 25 24 23 23 22 21 19 18 17 16 15 15 15 13 12 13 15 17 18 16
31 31 31 30 30 31 33 33 33 32 33 33 32 32 31 30 29 29 28 27 27 26 26 25 25 24 23 23 21 19 19 19 17 17 17 15 14 13 13 14 15 16
30 31 32 31 29 30 33 35 35 34 34 34 34 33 32 31 30 29 28 27 27 26 26 26 25 25 24 23 22 20 20 20 19 19 18 16 15 15 14 13 13 13
30 30 30 30 29 28 32 35 36 36 35 35 35 34 33 33 32 31 30 28 28 27 26 26 25 25 25 23 22 21 21 20 20 20 20 19 17 16 16 15 14 12
29 30 29 30 29 28 31 35 36 36 36 35 35 35 34 33 33 33 31 30 29 28 27 26 26 25 25 23 22 21 21 21 21 21 21 20 19 18 17 17 17 15
28 29 29 30 29 28 30 33 34 35 35 35 35 35 34 33 33 33 32 31 30 28 28 27 27 26 25 23 22 21 21 21 21 21 21 21 20 20 19 18 19 18
27 28 28 29 29 28 29 31 32 33 33 33 34 34 34 34 33 32 32 31 30 29 28 28 28 27 26 24 22 22 22 21 20 21 21 21 21 21 21 21 21 20
25 27 28 28 28 27 29 30 31 32 32 33 34 33 33 33 32 31 31 31 31 29 29 29 28 29 27 25 23 22 23 23 21 20 20 20 21 22 22 22 22 22
25 26 27 29 29 28 29 29 29 31 32 33 33 33 33 32 31 31 31 31 31 30 30 29 29 29 28 25 22 22 24 24 22 21 20 20 21 22 22 22 23 23
26 28 29 31 30 31 31 29 29 30 31 32 32 32 32 32 31 31 31 31 31 31 30 29 29 29 28 26 22 22 24 24 23 21 20 20 19 20 21 21 22 23
24 28 29 29 29 32 32 30 30 30 31 33 32 31 32 32 31 32 32 31 31 31 30 29 29 28 27 26 22 22 24 23 23 22 21 20 20 19 20 20 21 22
23 26 27 26 27 31 31 31 33 33 33 34 32 31 31 31 31 31 31 30 30 29 28 29 28 26 25 24 22 24 25 24 23 23 22 21 21 20 20 20 20 21
23 25 25 24 26 29 28 30 34 34 34 35 34 33 31 29 31 31 30 30 29 28 28 28 27 25 23 22 23 26 26 25 24 23 23 22 22 21 21 20 19 19
23 23 22 23 26 27 26 28 32 34 34 35 35 34 31 30 29 29 30 31 29 28 28 27 26 24 21 21 25 27 26 26 25 24 23 23 23 22 21 20 20 19
23 22 21 23 25 24 24 26 30 32 34 35 35 34 34 33 29 29 31 31 29 29 28 26 25 23 21 22 25 26 26 27 26 24 24 23 23 24 23 21 21 21
23 21 22 23 23 23 23 25 28 29 31 34 33 33 35 33 31 33 33 30 29 30 28 27 25 23 22 23 24 25 25 27 26 25 24 23 22 24 24 23 23 24
22 21 24 25 24 24 23 24 25 25 27 29 29 31 34 33 34 37 35 32 31 29 28 27 27 26 25 25 25 25 25 26 26 26 25 23 22 23 24 24 25 25
21 22 25 25 26 26 26 27 27 26 26 26 26 28 30 32 35 36 36 36 34 33 32 30 28 28 27 26 26 26 25 25 26 26 25 24 23 23 24 25 26 26
21 23 25 26 27 28 30 30 29 28 27 26 26 27 26 29 32 33 34 35 35 37 39 35 31 30 29 28 28 26 25 25 26 27 27 26 25 25 25 25 26 26
21 23 25 26 28 29 30 28 27 28 28 27 27 28 28 30 31 30 31 32 34 36 39 39 38 35 30 28 27 26 26 27 28 29 29 29 28 26 25 25 25 25
22 23 25 26 28 28 27 26 26 27 27 27 28 29 30 31 31 30 30 32 34 34 36 40 41 36 32 30 28 28 29 29 29 30 30 30 30 28 26 26 25 25
21 23 25 25 26 25 25 26 27 26 27 29 31 31 31 31 32 34 33 33 35 34 34 39 43 40 36 34 31 30 30 29 29 30 30 30 31 29 28 27 25 25
21 23 24 24 24 24 25 25 25 27 30 30 31 32 34 35 36 37 37 37 39 37 35 39 45 44 39 36 33 30 29 29 29 30 30 30 30 29 28 27 26 26
23 22 21 22 23 23 23 24 25 27 29 29 30 33 37 38 38 38 41 41 40 39 37 38 44 45 39 35 33 29 28 29 29 29 30 30 30 29 28 28 27 27
22 20 20 21 22 22 23 24 25 26 28 30 31 32 33 36 37 38 43 43 41 42 41 39 42 44 40 35 33 29 27 28 29 29 31 31 29 29 29 29 28 27
21 21 21 21 22 23 24 25 26 27 29 30 29 29 29 33 34 35 39 42 42 42 42 40 40 41 39 35 32 30 27 27 29 30 31 31 30 29 30 30 28 27
Wind_Direction
27 24 23 23 23 22 20 21 20 18 18 17 14 14 13 11 13 16 16 14 14 14 11 10 9 7 7 6 6 7 6 360 356 353 346 335 326 315 303 298 298 303
24 23 23 23 21 20 20 21 21 19 19 18 16 15 14 12 15 16 13 11 12 12 9 8 8 8 6 5 6 8 4 0 358 353 348 344 341 331 316 303 292 287
21 21 22 23 20 18 17 20 21 19 18 18 18 17 14 13 15 15 12 9 8 7 7 6 6 7 6 5 6 7 3 1 359 354 350 348 346 341 332 322 307 293
18 17 17 19 20 17 15 18 19 18 18 16 16 16 14 12 15 14 10 7 6 5 4 3 4 5 5 5 7 5 2 1 359 357 354 351 348 344 339 334 327 316
14 15 13 15 17 15 13 16 17 16 16 14 14 15 11 9 12 12 8 4 3 3 2 2 3 3 3 4 5 3 1 1 360 358 355 351 350 347 344 342 338 332
10 12 11 11 14 13 11 13 13 13 12 10 11 12 9 8 10 9 6 2 1 360 359 360 1 0 0 2 2 360 359 359 360 359 356 352 349 348 348 346 342 338
6 8 8 9 12 10 8 9 9 9 8 6 7 8 7 8 8 6 3 1 0 359 357 357 359 358 359 0 358 357 356 355 358 358 356 353 350 348 348 347 345 342
3 4 4 6 8 7 5 6 5 6 6 5 4 4 4 5 4 2 0 359 359 359 357 356 356 356 358 359 357 354 353 352 354 355 352 352 352 350 348 346 346 345
1 1 2 4 6 4 2 2 1 2 3 2 2 2 1 2 2 360 358 358 358 357 357 356 354 353 356 359 355 352 351 351 351 351 348 347 349 350 349 347 344 344
359 0 2 3 2 0 -0 359 357 357 359 359 359 359 358 359 359 357 357 357 356 355 355 355 352 350 353 357 354 349 349 349 347 346 344 343 342 344 347 346 344 342
355 357 360 360 357 356 358 357 355 354 355 356 357 356 355 356 354 353 355 355 354 353 352 351 350 348 350 354 351 347 347 345 343 341 339 339 339 338 340 342 342 342
351 353 355 354 352 353 354 354 353 353 353 355 356 353 352 353 351 350 351 350 350 351 348 347 347 347 349 350 346 344 344 341 339 338 336 335 336 335 336 336 336 338
348 348 349 348 347 349 349 349 350 350 351 353 353 352 351 349 347 347 347 345 345 346 345 344 345 346 348 346 341 341 342 339 337 335 332 331 331 331 332 332 332 333
344 344 344 343 344 345 345 344 346 347 349 350 350 350 349 345 344 344 342 342 342 342 341 342 342 343 343 341 339 339 339 337 334 332 329 327 327 329 329 329 329 329
341 341 340 341 341 342 341 340 343 344 345 347 348 347 345 344 343 340 339 339 339 338 338 340 339 337 336 336 336 336 334 333 331 328 326 323 323 325 325 324 326 326
339 338 339 340 340 339 337 337 340 340 341 344 345 342 342 342 339 339 340 338 335 335 335 335 333 330 330 330 331 331 330 329 327 325 323 321 318 320 321 320 321 321
338 337 337 338 338 338 335 335 336 335 337 340 339 338 339 338 336 337 338 336 334 333 331 329 327 327 327 326 326 328 327 326 325 323 321 318 315 314 314 315 315 315
336 335 336 336 337 337 335 336 336 334 335 335 334 334 335 334 334 335 334 334 334 331 328 326 324 324 325 324 324 325 325 324 322 320 318 314 311 309 308 309 310 311
334 334 334 334 335 335 335 336 336 335 335 333 331 331 330 329 331 331 330 331 330 328 328 326 322 322 324 323 322 321 321 321 319 316 314 310 306 305 303 304 305 306
332 332 331 331 332 333 334 334 333 332 333 332 330 329 328 327 328 327 326 326 325 325 325 323 322 323 323 320 318 317 317 317 314 312 311 307 304 302 299 299 299 300
330 329 328 328 329 331 331 329 329 330 330 329 328 326 326 325 324 322 321 321 322 322 320 319 320 321 320 317 315 314 314 313 311 310 309 307 304 300 297 295 294 294
327 325 324 325 326 327 327 326 327 327 325 326 326 324 323 321 320 320 319 318 319 318 316 316 317 318 318 317 314 313 313 311 308 308 306 304 302 300 297 294 290 288
322 321 321 321 322 322 322 322 322 321 322 324 324 321 320 320 319 318 317 316 317 316 313 313 314 317 318 316 314 313 311 308 305 304 301 299 299 297 296 293 289 285
317 318 315 315 316 316 316 316 316 316 317 319 318 317 317 318 317 316 315 315 314 313 312 310 311 314 315 313 311 309 307 304 302 300 297 295 295 295 293 291 288 285
315 313 310 311 311 309 309 310 310 311 312 313 313 312 312 312 312 312 313 313 312 311 311 309 309 311 313 311 309 306 303 301 299 297 294 292 292 292 291 289 286 284
310 308 306 307 306 305 305 305 306 307 309 309 308 305 304 305 306 306 307 308 310 311 311 310 309 309 311 311 308 304 300 298 297 294 291 290 291 290 288 287 285 283